Total_Precipitation_Accumulation
0.02 0.02 0.02 0.03 0.04 0.05 0.09 0.15 0.27 0.32 0.26 0.36 0.47 0.69 0.80 0.93 1.11 1.10 0.96 1.01 1.29 1.50 1.78 2.24 2.78 3.63 4.72 5.65 5.93 5.43 4.95 4.63 4.25 3.90 3.35 3.04 3.13 3.08 2.83 2.56 2.26 2.17 2.07 2.14
0.02 0.03 0.03 0.03 0.04 0.07 0.10 0.16 0.26 0.32 0.24 0.30 0.47 0.77 1.10 1.10 1.03 0.97 1.03 1.05 1.15 1.52 1.96 2.69 3.71 4.28 4.57 4.70 4.44 4.10 3.85 3.66 3.21 2.96 2.86 2.68 2.75 2.50 2.35 2.25 2.29 1.95 1.83 1.91
0.04 0.05 0.03 0.03 0.05 0.12 0.13 0.17 0.25 0.32 0.23 0.27 0.51 1.00 1.27 1.26 1.04 0.89 0.98 1.00 1.15 1.56 2.15 2.97 3.55 3.68 3.44 3.10 2.97 2.92 2.99 2.74 2.64 2.70 2.66 2.61 2.69 2.42 2.21 2.14 2.20 1.87 1.63 1.64
0.06 0.05 0.03 0.03 0.06 0.11 0.13 0.11 0.10 0.14 0.24 0.43 0.63 1.27 1.48 1.24 1.16 0.98 1.01 1.02 1.04 1.33 1.72 2.15 2.42 2.30 2.40 2.53 2.52 2.63 2.73 2.47 2.46 2.42 2.18 2.13 2.11 2.03 1.98 2.00 2.09 2.14 1.76 1.58
0.06 0.05 0.04 0.04 0.06 0.07 0.07 0.06 0.08 0.16 0.31 0.52 0.71 1.01 1.22 1.04 1.19 0.98 0.88 0.89 0.83 1.00 1.15 1.28 1.41 1.53 1.72 1.84 2.01 2.27 2.52 2.46 2.30 2.12 2.10 2.19 2.07 2.06 2.06 2.10 2.18 2.25 2.02 1.76
0.06 0.05 0.05 0.04 0.05 0.05 0.06 0.09 0.19 0.30 0.48 1.00 0.96 0.94 1.14 1.10 1.21 0.97 0.81 0.72 0.75 0.88 1.01 1.06 1.10 1.22 1.38 1.52 1.74 2.00 2.33 2.38 2.26 2.11 2.04 2.12 2.19 2.20 2.13 2.14 2.13 1.95 1.90 1.88
0.12 0.09 0.06 0.05 0.06 0.07 0.08 0.13 0.35 0.71 1.08 1.25 0.81 0.89 1.12 0.92 0.87 0.73 0.52 0.51 0.64 0.83 0.98 1.06 1.00 0.97 1.03 1.18 1.34 1.44 1.67 1.93 2.04 1.99 1.97 2.01 2.18 2.13 1.97 1.87 1.82 1.79 1.62 1.57
0.16 0.13 0.07 0.05 0.06 0.08 0.07 0.08 0.21 0.37 0.47 0.62 0.79 1.16 1.26 0.93 0.65 0.41 0.33 0.45 0.68 0.82 0.84 0.90 0.90 0.86 0.84 0.94 1.12 1.25 1.49 1.66 1.86 1.90 1.89 1.93 2.03 1.96 1.82 1.83 1.66 1.63 1.57 1.49
0.07 0.06 0.05 0.04 0.06 0.08 0.08 0.08 0.09 0.15 0.20 0.41 0.79 1.10 1.05 0.82 0.64 0.46 0.39 0.45 0.66 0.69 0.66 0.80 0.87 0.95 0.94 0.93 1.04 1.19 1.45 1.71 1.92 2.02 2.07 2.02 2.03 2.04 1.99 1.92 1.69 1.51 1.63 1.54
0.04 0.05 0.05 0.05 0.06 0.07 0.08 0.09 0.10 0.11 0.20 0.35 0.63 1.03 1.23 1.03 0.80 0.63 0.54 0.53 0.64 0.68 0.69 0.91 1.06 1.04 0.91 0.79 0.87 1.05 1.31 1.68 1.90 2.04 2.04 1.93 2.09 2.02 1.99 1.92 1.76 1.59 1.59 1.59
0.03 0.04 0.07 0.06 0.07 0.09 0.09 0.10 0.11 0.11 0.13 0.23 0.50 0.71 0.66 0.63 0.60 0.63 0.69 0.63 0.54 0.64 0.77 0.94 1.14 1.12 0.88 0.77 0.76 0.90 1.24 1.53 1.70 1.82 1.89 1.81 1.78 1.72 1.73 1.79 1.78 1.75 1.73 1.67
0.03 0.03 0.05 0.08 0.09 0.09 0.11 0.13 0.15 0.17 0.16 0.15 0.28 0.51 0.39 0.44 0.55 0.62 0.69 0.76 0.77 0.80 0.83 0.80 0.94 1.11 1.01 0.89 0.84 1.00 1.28 1.47 1.56 1.61 1.63 1.64 1.68 1.66 1.59 1.57 1.66 1.72 1.63 1.54
0.04 0.04 0.06 0.14 0.20 0.16 0.12 0.12 0.14 0.17 0.19 0.15 0.29 0.54 0.41 0.37 0.57 0.63 0.63 0.85 1.01 0.74 0.63 0.66 0.82 0.96 1.08 1.05 1.03 1.16 1.31 1.40 1.46 1.38 1.38 1.41 1.43 1.43 1.42 1.44 1.51 1.59 1.61 1.60
0.04 0.04 0.05 0.13 0.21 0.22 0.17 0.14 0.15 0.15 0.13 0.14 0.20 0.44 0.42 0.43 0.58 0.82 0.88 0.90 0.75 0.67 0.66 0.64 0.75 0.97 1.08 1.13 1.13 1.12 1.21 1.39 1.40 1.32 1.36 1.47 1.52 1.55 1.57 1.54 1.58 1.68 1.76 1.70
0.04 0.03 0.03 0.04 0.08 0.14 0.17 0.17 0.15 0.12 0.09 0.15 0.17 0.29 0.36 0.47 0.60 0.76 0.78 0.71 0.65 0.72 0.73 0.71 0.79 0.99 1.13 1.29 1.32 1.27 1.27 1.33 1.48 1.59 1.65 1.80 1.95 1.97 1.86 1.82 1.89 1.95 2.00 1.93
0.04 0.04 0.04 0.04 0.07 0.12 0.14 0.16 0.12 0.09 0.08 0.12 0.16 0.23 0.29 0.46 0.54 0.64 0.62 0.61 0.70 0.76 0.73 0.70 0.82 1.02 1.07 1.09 1.16 1.17 1.22 1.29 1.35 1.44 1.60 1.80 1.99 2.09 2.06 2.10 2.24 2.26 2.22 2.33
0.08 0.07 0.06 0.06 0.08 0.11 0.19 0.15 0.12 0.12 0.11 0.13 0.21 0.27 0.30 0.41 0.55 0.69 0.72 0.76 0.80 0.75 0.72 0.76 0.78 0.88 1.07 1.00 0.99 1.11 1.19 1.31 1.45 1.69 1.88 1.97 2.12 2.25 2.27 2.23 2.27 2.32 2.37 2.39
0.19 0.18 0.15 0.13 0.15 0.22 0.22 0.17 0.17 0.17 0.19 0.23 0.28 0.35 0.42 0.48 0.59 0.71 0.76 0.75 0.84 0.88 0.95 1.02 1.10 1.09 1.14 1.11 1.09 1.17 1.26 1.41 1.49 1.59 1.76 1.90 2.09 2.24 2.35 2.47 2.48 2.58 2.68 2.71
0.30 0.32 0.27 0.22 0.23 0.25 0.26 0.26 0.27 0.30 0.37 0.40 0.49 0.59 0.60 0.60 0.62 0.74 0.85 0.88 0.99 0.98 1.03 1.16 1.22 1.23 1.20 1.27 1.37 1.50 1.53 1.66 1.79 1.85 2.03 2.14 2.25 2.41 2.50 2.57 2.71 2.83 2.93 2.91
0.34 0.40 0.39 0.33 0.39 0.41 0.41 0.41 0.35 0.42 0.76 0.68 0.70 0.81 0.83 0.88 1.09 1.13 1.11 1.08 1.09 1.08 1.12 1.23 1.21 1.20 1.36 1.43 1.49 1.62 1.81 1.92 2.07 2.19 2.35 2.48 2.61 2.69 2.68 2.70 2.80 2.86 2.92 2.91
0.41 0.49 0.49 0.46 0.47 0.47 0.45 0.46 0.49 0.85 1.22 1.18 1.13 1.14 1.09 1.20 1.25 1.13 1.04 1.15 1.16 1.25 1.31 1.27 1.26 1.33 1.40 1.43 1.52 1.69 1.89 2.08 2.19 2.30 2.41 2.56 2.69 2.90 3.05 3.12 2.94 2.77 2.76 2.83
0.68 0.72 0.71 0.70 0.83 0.85 0.59 0.65 0.98 1.23 1.19 1.42 1.31 1.17 1.19 1.19 1.11 1.04 1.05 1.20 1.31 1.37 1.42 1.42 1.41 1.40 1.44 1.53 1.62 1.77 1.95 2.08 2.21 2.28 2.44 2.56 2.65 2.68 2.74 2.99 3.04 2.97 2.88 2.81
0.94 0.97 1.02 1.00 1.10 0.99 0.84 0.89 1.09 1.11 1.14 1.29 1.28 1.13 1.12 1.11 1.05 1.03 1.07 1.16 1.23 1.28 1.36 1.38 1.41 1.45 1.51 1.58 1.70 1.85 1.95 2.06 2.13 2.27 2.43 2.61 2.71 2.77 2.74 2.75 2.83 2.82 2.75 2.61
1.15 0.97 1.13 1.31 1.31 1.19 1.05 0.94 1.00 1.05 1.07 1.10 1.23 1.28 1.21 1.15 1.08 1.13 1.13 1.15 1.28 1.37 1.40 1.45 1.44 1.46 1.59 1.72 1.86 1.91 1.93 2.04 2.25 2.35 2.41 2.47 2.52 2.56 2.63 2.77 2.71 2.65 2.64 2.56
1.27 1.25 1.47 1.83 1.84 1.66 1.51 1.32 1.23 1.21 1.19 1.20 1.32 1.42 1.47 1.44 1.36 1.35 1.28 1.24 1.34 1.44 1.39 1.45 1.54 1.58 1.65 1.71 1.84 1.96 2.01 2.04 2.15 2.16 2.11 2.18 2.29 2.36 2.39 2.54 2.61 2.48 2.37 2.41
1.32 1.53 1.90 2.21 2.01 2.00 1.88 1.55 1.41 1.44 1.52 1.47 1.47 1.52 1.48 1.44 1.44 1.46 1.43 1.34 1.28 1.27 1.37 1.49 1.56 1.64 1.68 1.70 1.78 1.82 1.88 1.99 2.10 2.17 2.15 2.15 2.20 2.27 2.31 2.29 2.35 2.38 2.14 2.07